Regional Weather Roundup
Issued by NWS

Home | Current Version | Previous Version | Text Only | Print | Product List | Glossary Off
Versions: 1 2 3 4 5 6 7 8 9 10 11 12 13 14 15 16 17 18 19 20 21 22 23 24 25 26 27 28 29 30 31 32 33 34 35 36 37 38 39 40 41 42 43 44 45 46 47 48 49 50

000
ASUS43 KLSX 120107
RWRMO

WEATHER SUMMARY FOR MISSOURI
NATIONAL WEATHER SERVICE SPRINGFIELD MO
800 PM CDT FRI JUL 11 2014

NOTE: "FAIR" INDICATES FEW OR NO CLOUDS BELOW 12,000 FEET WITH NO
       SIGNIFICANT WEATHER AND/OR OBSTRUCTIONS TO VISIBILITY.
       CURRENT SKY AND/OR WEATHER CONDITIONS ARE NOT AVAILABLE FOR
       CHILLICOTHE AND FARMINGTON.

MOZ001>031-035>038-043-044-053-054-120200-
...NORTHERN AND WESTERN MISSOURI...

CITY           SKY/WX    TMP DP  RH WIND       PRES   REMARKS
KANSAS CTY INT PTCLDY    85  75  72 S9        30.00S HX  93
KANSAS C DTWN  PTCLDY    89  73  59 S12       29.99R HX  97
LEE`S SUMMIT   PTCLDY    86  74  67 S8        30.02R HX  94
ST JOSEPH      PTCLDY    85  76  74 S7        29.98R HX  94
CHILLICOTHE      N/A     86  75  69 VRB5      30.01S HX  95
KIRKSVILLE     CLOUDY    81  74  79 S6        30.03F

$$
MOZ066>068-077>081-088>096-101>105-120200-
...SOUTHWEST MISSOURI...

CITY           SKY/WX    TMP DP  RH WIND       PRES   REMARKS
SPRINGFIELD    PTCLDY    84  71  65 S8        30.10R
JOPLIN         CLEAR     86  68  54 S7        30.08R

$$
MOZ032>034-039>042-045>050-055>058-069>072-120200-
...CENTRAL MISSOURI...

CITY           SKY/WX    TMP DP  RH WIND       PRES   REMARKS
COLUMBIA       CLOUDY    85  75  72 S6        30.06R HX  93
JEFFERSON CITY PTCLDY    87  73  62 VRB5      30.04R HX  94
ROLLA          PTCLDY    82  72  71 S8        30.08R
SEDALIA        CLEAR     86  74  67 S8        30.04R HX  94
WHITEMAN AFB   PTCLDY    85  69  60 SW9       30.03R
OSAGE BEACH    PTCLDY    84  72  65 S5        30.06R

$$
MOZ051-052-059>065-120200-
...EAST CENTRAL MISSOURI...

CITY           SKY/WX    TMP DP  RH WIND       PRES   REMARKS
ST LOUIS INTL  MOCLDY    87  69  54 S8        30.08R HX  91
SPIRIT OF STL  MOCLDY    84  70  62 SE5       30.06R
ST CHARLES     PTCLDY    83  71  67 S7        30.06R

$$
MOZ072>076-082>087-097>100-106>115-120200-
...SOUTH CENTRAL AND SOUTHEAST MISSOURI...

CITY           SKY/WX    TMP DP  RH WIND       PRES   REMARKS
CAPE GIRARDEAU PTCLDY    83  70  64 S5        30.11R
FARMINGTON     PTCLDY    81  72  74 S6        30.14R
POPLAR BLUFF   CLEAR     83  70  64 CALM      30.10R
WEST PLAINS    CLEAR     82  72  71 S6        30.14R

$$


USA.gov is the U.S. government's official web portal to all federal, state and local government web resources and services.